Regional Weather Roundup
Issued by NWS

Home | Current Version | Previous Version | Graphics & Text | Print | Product List | Glossary On
Versions: 1 2 3 4 5 6 7 8 9 10 11 12 13 14 15 16 17 18 19 20 21 22 23 24 25 26 27 28 29 30 31 32 33 34 35 36 37 38 39 40 41 42 43 44 45 46 47 48 49 50
395
ASUS43 KLOT 260107
RWRIL

ILLINOIS REGIONAL WEATHER ROUNDUP
NATIONAL WEATHER SERVICE CHICAGO/ROMEOVILLE IL
800 PM CDT SAT MAR 25 2017

NOTE: "FAIR" INDICATES FEW OR NO CLOUDS BELOW 12,000 FEET WITH NO
SIGNIFICANT WEATHER AND/OR OBSTRUCTIONS TO VISIBILITY.

* THESE STATIONS ARE NOT UNDER NWS QUALITY CONTROL. THEY ALSO MAY NOT
  REPORT WEATHER SUCH AS PRECIPITATION OR FOG.

ILZ001-002-007-009-015-016-024-260200-
NORTHWEST ILLINOIS

CITY           SKY/WX    TMP DP  RH WIND       PRES   REMARKS
MOLINE         CLOUDY    50  47  89 NE14      29.89R
STERLING*      LGT RAIN  45  44  97 E13G18    29.93S
SAVANNA*       CLOUDY    43  41  93 NE8       29.95R
$$

ILZ003-004-008-010-011-017-018-260200-
NORTH CENTRAL ILLINOIS

CITY           SKY/WX    TMP DP  RH WIND       PRES   REMARKS
ROCKFORD       DRIZZLE   43  41  93 NE10      29.98F
FREEPORT*      CLOUDY    40  39  97 NE12      29.99R
ROCHELLE*      CLOUDY    43  42  97 NE17      29.95S
DE KALB*       CLOUDY    43  42  97 NE13      29.96F FOG
PERU*          CLOUDY    47  46  97 E15       29.93S FOG
$$

ILZ005-006-012>014-019>023-260200-
NORTHEAST ILLINOIS

CITY           SKY/WX    TMP DP  RH WIND       PRES   REMARKS
CHICAGO-OHARE  LGT RAIN  44  42  93 NE9       29.98S FOG
CHICAGO-MIDWAY LGT RAIN  46  45  96 N7        29.97F FOG
AURORA         CLOUDY    46  43  89 NE13      29.96S
LANSING*       LGT RAIN  45  45 100 NE6       29.98R
JOLIET*        LGT RAIN  47  47  97 NE7       29.96S
WAUKEGAN       LGT RAIN  40  40 100 NE13G20   30.01R FOG
DUPAGE AIRPORT LGT RAIN  44  44 100 NE12      29.96F
KANKAKEE*      DRIZZLE   55  54  97 CALM      29.95S
WHEELING       CLOUDY    42  42 100 NE8       30.00S
MORRIS*        CLOUDY    48  46  95 NE6       29.94S FOG
ROMEOVILLE*    CLOUDY    45  45 100 NE12      29.96S FOG
$$

LMZ740>746-260200-
SOUTHERN LAKE MICHIGAN

STATION/POSITION SKY/WX   TEMP    WIND        PRES    VSBY  WAVE
                          AIR SEA DIR/SP/G                  HT/PER
                          (F)     (DEG/KT/KT) (MB)    (MI)  (FT/S)
HARRISON CRIB                     350/ 10/ 10   N/A
BURNHAM HARBOR                    350/  8/ 12   N/A
CALUMET HARBOR             41     330/ 10/ 14 1014.5R
BURNS HARBOR               56     110/ 13/ 17 1015.2F
MICHIGAN CITY              54     100/ 12/ 14   N/A
$$

ILZ025>027-034>036-040-047-049-050-058-095>099-260200-
WEST-CENTRAL ILLINOIS

CITY           SKY/WX    TMP DP  RH WIND       PRES   REMARKS
QUINCY         CLOUDY    58  57  97 E8        29.80S
GALESBURG*     DRIZZLE   57  57  99 E7        29.85F
MACOMB*        CLOUDY    58  57  97 E13       29.86S
JACKSONVILLE*  CLOUDY    59  57  92 SE15      29.83R
PITTSFIELD*    RAIN      60  58  94 E3        29.81S
$$

ILZ028>032-037-038-041>044-048-051>054-059>061-260200-
CENTRAL ILLINOIS

CITY           SKY/WX    TMP DP  RH WIND       PRES   REMARKS
PONTIAC        LGT RAIN  58  58  98 NE8       29.93S
BLOOMINGTON    CLOUDY    58  56  93 SE8       29.91S
DECATUR        CLOUDY    59  57  93 SE6       29.88F
PEORIA         CLOUDY    59  59 100 E7        29.87F
LACON*         CLOUDY    55  55 100 E14       29.89S FOG
LINCOLN*       CLOUDY    60  60  99 SE7       29.87S
SPRINGFIELD    CLOUDY    60  58  92 SE8       29.86R
TAYLORVILLE    CLOUDY    59  57  94 SE9       29.86S
$$

ILZ033-039-045-046-055>057-062-063-260200-
EAST-CENTRAL ILLINOIS

CITY           SKY/WX    TMP DP  RH WIND       PRES   REMARKS
CHAMPAIGN      CLOUDY    60  56  86 SE7       29.91S
RANTOUL*       CLOUDY    60  59  94 SE5       29.92S
MATTOON        MOCLDY    61  57  87 SE9       29.89S
PARIS*         CLOUDY    61  57  86 SE6       29.93S
$$

ILZ079-100>102-260200-
SOUTHWEST ILLINOIS

CITY           SKY/WX    TMP DP  RH WIND       PRES   REMARKS
ALTON          LGT RAIN  59  57  94 SE14      29.98R
BELLEVILLE     MOCLDY    59  59  99 S7        29.83R
CAHOKIA*       CLOUDY    58  54  86 SE5       29.82R
SPARTA*        LGT RAIN  60  57  90 S9        29.86R
$$

ILZ064>066-069>071-074>076-080>082-084>086-088>090-092>094-260200-
SOUTH-CENTRAL ILLINOIS

CITY           SKY/WX    TMP DP  RH WIND       PRES   REMARKS
CARBONDALE     LGT RAIN  63  57  81 S8        29.86R
CAIRO*         RAIN      59  58  95 S8        29.88S
EFFINGHAM*     CLOUDY    59  57  92 E7        29.90S
MARION         CLOUDY    64  59  82 S9        29.89R
MT. VERNON     CLOUDY    62  56  80 SE10      29.88R
CENTRALIA*     MOCLDY    61  58  90 SE7       29.85R
SALEM*         CLOUDY    62  57  85 SE5       29.86S
METROPOLIS*    CLOUDY    64  56  76 S8        29.90R
$$

ILZ067-068-072-073-078-083-087-091-260200-
SOUTHEAST ILLINOIS

CITY           SKY/WX    TMP DP  RH WIND       PRES   REMARKS
LAWRENCEVILLE  CLOUDY    64  53  67 S7        29.92S
FLORA*         CLOUDY    61  57  86 SE12      29.89S
FAIRFIELD*     CLOUDY    63  55  77 SE8       29.88R
HARRISBURG*    CLOUDY    62  57  83 SE7       29.90R
ROBINSON*      CLOUDY    64  53  67 S12       29.92S
CARMI*         MOCLDY    60  55  85 SE9       29.90S
$$

ABBREVIATIONS USED IN REMARKS
   TC - TEMPERATURE IN CELSIUS
  WCI - WIND CHILL INDEX
   HX - HEAT INDEX
  VSB - VISIBILITY
$$





USA.gov is the U.S. government's official web portal to all federal, state and local government web resources and services.